Location: Bonningues
(50.7927°N, 2.0150°E)
Time: 05:04:59
(UTC+00:00)

Cosmos 1980 Rocket - Pass Details

Date: 08 August 2020
Orbit: 829 x 850 km, 71.0° (Epoch: 19 September)

Event Time Altitude Azimuth Distance (km) Brightness Sun altitude
Rises 20:34:17 0° 330° (NNW) 3,424 6.9 -10.0°
Reaches altitude 10° 20:36:46 10° 333° (NNW) 2,483 5.9 -10.3°
Maximum altitude 20:42:28 71° 58° (ENE) 897 2.3 -10.9°
Enters shadow 20:47:11 15° 141° (SE) 2,115 3.6 -11.5°
